GW3403 Weather Reports


time (UTC)temp
F
wind
direction
speed
knots
gust
knots
rain 1hr
in
rain 24hr
in
rain mn
in
humidity
%
barometer
mb
20260906163712 76 81 0.9 1.7 0.00 0.00 0.00 81 1019.8
20260906163208 74 95 0.0 0.0 0.00 0.00 0.00 88 1019.7
20260906162704 74 71 0.9 1.7 0.00 0.00 0.00 85 1019.5
20260906162204 73 97 0.0 0.0 0.00 0.00 0.00 88 1019.8
20260906161659 74 94 0.9 0.9 0.00 0.00 0.00 87 1019.7
20260906161158 73 93 0.9 0.9 0.00 0.00 0.00 87 1019.7
20260906160657 73 98 0.9 0.9 0.00 0.00 0.00 86 1019.5
20260906160156 73 95 0.9 0.9 0.00 0.00 0.00 88 1019.6
20260906155654 73 95 0.0 0.0 0.00 0.00 0.00 88 1019.6
20260906155150 73 97 0.0 0.9 0.00 0.00 0.00 88 1019.4
20260906154645 74 97 0.0 0.9 0.00 0.00 0.00 87 1019.6
20260906154144 74 98 0.9 0.9 0.00 0.00 0.00 87 1019.6
20260906153644 73 99 0.0 0.0 0.00 0.00 0.00 87 1019.7
20260906153139 73 97 0.0 0.0 0.00 0.00 0.00 89 1019.6
20260906152639 73 96 0.0 0.0 0.00 0.00 0.00 91 1019.6
20260906152133 73 119 0.9 2.6 0.00 0.00 0.00 89 1019.7
20260906151627 72 89 0.0 0.0 0.00 0.00 0.00 92 1019.8
20260906151124 71 97 0.0 0.0 0.00 0.00 0.00 93 1019.4
20260906150619 70 54 1.7 1.7 0.00 0.00 0.00 96 1019.5
20260906150114 69 93 0.0 0.9 0.00 0.00 0.00 99 1019.6
20260906145613 69 181 0.9 1.7 0.00 0.00 0.00 99 1019.5
20260906145108 68 102 0.0 0.0 0.00 0.00 0.00 99 1019.2
20260906144602 68 98 0.0 0.9 0.00 0.00 0.00 99 1019.4
20260906144057 67 98 0.0 0.0 0.00 0.00 0.00 99 1019.7
20260906143552 67 88 0.9 0.9 0.00 0.00 0.00 99 1019.5
20260906143049 67 97 0.0 0.0 0.00 0.00 0.00 99 1019.4
20260906142548 66 97 0.9 1.7 0.00 0.00 0.00 99 1019.3
20260906142044 66 98 0.0 0.0 0.00 0.00 0.00 99 1019.3
20260906141537 66 97 0.0 0.0 0.00 0.00 0.00 99 1019.4
20260906141033 64 97 0.0 0.0 0.00 0.00 0.00 99 1019.5
20260906140532 64 97 0.0 0.0 0.00 0.00 0.00 99 1019.2
20260906140031 64 99 0.0 0.0 0.00 0.00 0.00 99 1019.6
20260906135528 64 94 0.0 0.9 0.00 0.00 0.00 99 1019.6
20260906135024 64 88 0.9 0.9 0.00 0.00 0.00 99 1019.6
20260906134519 64 96 0.0 0.0 0.00 0.00 0.00 99 1019.8
20260906134014 63 100 0.0 0.0 0.00 0.00 0.00 99 1019.6
20260906133510 63 95 0.9 0.9 0.00 0.00 0.00 99 1019.8
20260906133005 62 98 0.0 0.9 0.00 0.00 0.00 99 1019.5
20260906132501 62 100 0.0 0.0 0.00 0.00 0.00 99 1019.5
20260906131956 62 86 0.9 0.9 0.00 0.00 0.00 99 1019.5
20260906131451 62 98 0.0 0.0 0.00 0.00 0.00 99 1019.3
20260906130947 61 100 0.0 0.0 0.00 0.00 0.00 99 1019.4
20260906130446 60 97 0.0 0.0 0.00 0.00 0.00 99 1019.5
20260906125940 60 100 0.0 0.0 0.00 0.00 0.00 99 1019.2
20260906125437 59 100 0.0 0.0 0.00 0.00 0.00 99 1019.2
20260906124932 59 100 0.0 0.0 0.00 0.00 0.00 99 1019.1
20260906124428 59 100 0.0 0.0 0.00 0.00 0.00 99 1019.1
20260906123928 59 100 0.0 0.0 0.00 0.00 0.00 99 1019.3
20260906123427 59 101 0.0 0.0 0.00 0.00 0.00 99 1019.1
20260906122921 58 111 0.9 0.9 0.00 0.00 0.00 99 1019.0
20260906122416 58 100 0.0 0.0 0.00 0.00 0.00 99 1019.2
20260906121913 58 99 0.0 0.0 0.00 0.00 0.00 99 1018.8
20260906121409 58 99 0.0 0.0 0.00 0.00 0.00 99 1019.1
20260906120905 57 101 0.0 0.0 0.00 0.00 0.00 99 1018.8
20260906120400 57 101 0.0 0.0 0.00 0.00 0.00 99 1018.9
20260906115856 57 101 0.0 0.0 0.00 0.00 0.00 99 1018.8
20260906115352 57 101 0.0 0.0 0.00 0.00 0.00 99 1018.8
20260906114851 57 101 0.0 0.0 0.00 0.00 0.00 99 1018.7
20260906114346 57 101 0.0 0.0 0.00 0.00 0.00 99 1018.7
20260906113841 57 101 0.0 0.0 0.00 0.00 0.00 99 1018.6
20260906113340 57 101 0.0 0.0 0.00 0.00 0.00 99 1018.7
20260906112836 57 101 0.0 0.0 0.00 0.00 0.00 99 1018.5
20260906112332 57 101 0.0 0.0 0.00 0.00 0.00 99 1018.4
20260906111831 57 101 0.0 0.0 0.00 0.00 0.00 99 1018.4
20260906111326 58 101 0.0 0.0 0.00 0.00 0.00 99 1018.3
20260906110821 58 101 0.0 0.0 0.00 0.00 0.00 99 1018.2
20260906110317 58 101 0.0 0.0 0.00 0.00 0.00 99 1018.1
20260906105815 58 101 0.0 0.0 0.00 0.00 0.00 99 1018.2
20260906105311 58 101 0.0 0.0 0.00 0.00 0.00 99 1018.4
20260906104807 58 101 0.0 0.0 0.00 0.00 0.00 99 1018.3
20260906104305 58 101 0.0 0.0 0.00 0.00 0.00 99 1018.0
20260906103803 58 102 0.0 0.0 0.00 0.00 0.00 99 1018.2
20260906103257 59 101 0.0 0.0 0.00 0.00 0.00 99 1018.0
20260906102754 59 101 0.0 0.0 0.00 0.00 0.00 99 1018.1
20260906102252 59 101 0.0 0.0 0.00 0.00 0.00 99 1017.9
20260906101748 59 101 0.0 0.0 0.00 0.00 0.00 99 1018.0
20260906101242 59 101 0.0 0.0 0.00 0.00 0.00 99 1017.6
20260906100738 59 100 0.0 0.0 0.00 0.00 0.00 99 1018.1
20260906100237 59 103 0.0 0.0 0.00 0.00 0.00 99 1018.0
20260906095733 59 107 0.9 0.9 0.00 0.00 0.00 99 1018.3
20260906095228 59 105 0.0 0.0 0.00 0.00 0.00 99 1018.0
20260906094726 59 103 0.0 0.0 0.00 0.00 0.00 99 1018.1
20260906094216 58 101 0.0 0.0 0.00 0.00 0.00 99 1018.2
20260906093712 58 99 0.0 0.0 0.00 0.00 0.00 99 1018.0
20260906093207 58 100 0.0 0.0 0.00 0.00 0.00 99 1017.9
20260906092702 58 100 0.0 0.0 0.00 0.00 0.00 99 1018.0
20260906092156 58 100 0.0 0.0 0.00 0.00 0.00 99 1018.1
20260906091653 58 98 0.0 0.0 0.00 0.00 0.00 99 1018.1
20260906091149 58 100 0.0 0.0 0.00 0.00 0.00 99 1018.2
20260906090645 58 100 0.0 0.0 0.00 0.00 0.00 99 1017.9
20260906090144 58 101 0.0 0.0 0.00 0.00 0.00 99 1018.0
20260906085643 58 100 0.0 0.0 0.00 0.00 0.00 99 1017.9
20260906085137 58 100 0.0 0.0 0.00 0.00 0.00 99 1017.9
20260906084632 58 100 0.0 0.0 0.00 0.00 0.00 99 1017.9
20260906084131 58 100 0.0 0.0 0.00 0.00 0.00 99 1017.9
20260906083626 58 100 0.0 0.0 0.00 0.00 0.00 99 1017.9
20260906083121 58 100 0.0 0.0 0.00 0.00 0.00 99 1018.0
20260906082617 58 99 0.0 0.0 0.00 0.00 0.00 99 1018.2
20260906082112 58 99 0.0 0.0 0.00 0.00 0.00 99 1017.8
20260906081608 58 99 0.0 0.0 0.00 0.00 0.00 99 1017.9
20260906081103 58 99 0.0 0.0 0.00 0.00 0.00 99 1017.9
20260906080600 58 99 0.0 0.0 0.00 0.00 0.00 99 1017.8
20260906080055 58 99 0.0 0.0 0.00 0.00 0.00 99 1017.9
20260906075549 58 99 0.0 0.0 0.00 0.00 0.00 99 1017.8
20260906075044 58 99 0.0 0.0 0.00 0.00 0.00 99 1017.9
20260906074539 58 99 0.0 0.0 0.00 0.00 0.00 99 1018.0
20260906074037 58 99 0.0 0.0 0.00 0.00 0.00 99 1018.1
20260906073532 58 99 0.0 0.0 0.00 0.00 0.00 99 1017.9
20260906073029 58 99 0.0 0.0 0.00 0.00 0.00 99 1018.3
20260906072523 59 99 0.0 0.0 0.00 0.00 0.00 99 1018.1
20260906072020 59 99 0.0 0.0 0.00 0.00 0.00 99 1018.2
20260906071515 59 99 0.0 0.0 0.00 0.00 0.00 99 1018.0
20260906071010 59 99 0.0 0.0 0.00 0.00 0.00 99 1018.1
20260906070506 59 99 0.0 0.0 0.00 0.00 0.00 99 1017.8
20260906070001 59 99 0.0 0.0 0.00 0.00 0.00 99 1018.0
20260906065455 59 99 0.0 0.0 0.00 0.00 0.00 99 1017.7
20260906064951 59 99 0.0 0.0 0.00 0.00 0.00 99 1017.8
20260906064447 59 99 0.0 0.0 0.00 0.00 0.00 99 1017.9
20260906063942 59 99 0.0 0.0 0.00 0.00 0.00 99 1018.2
20260906063437 59 99 0.0 0.0 0.00 0.00 0.00 99 1018.0
20260906062932 59 100 0.0 0.0 0.00 0.00 0.00 99 1017.8
20260906062427 60 99 0.0 0.0 0.00 0.00 0.00 99 1017.7
20260906061922 60 100 0.0 0.0 0.00 0.00 0.00 99 1017.6
20260906061418 60 96 0.0 0.0 0.00 0.00 0.00 99 1017.5
20260906060912 60 97 0.0 0.0 0.00 0.00 0.00 99 1017.5
20260906060410 60 94 0.0 0.0 0.00 0.00 0.00 99 1017.5
20260906055906 60 97 0.0 0.0 0.00 0.00 0.00 99 1017.5
20260906055401 60 97 0.0 0.0 0.00 0.00 0.00 99 1017.5
20260906054856 60 97 0.0 0.0 0.00 0.00 0.00 99 1017.5
20260906054351 60 98 0.0 0.0 0.00 0.00 0.00 99 1017.8
20260906053847 59 97 0.0 0.0 0.00 0.00 0.00 99 1017.7
20260906053343 59 98 0.0 0.0 0.00 0.00 0.00 99 1017.6
20260906052838 59 98 0.0 0.0 0.00 0.00 0.00 99 1017.9
20260906052334 59 97 0.0 0.0 0.00 0.00 0.00 99 1017.6
20260906051831 59 97 0.0 0.0 0.00 0.00 0.00 99 1017.7
20260906051330 59 98 0.0 0.0 0.00 0.00 0.00 99 1017.7
20260906050826 59 97 0.0 0.0 0.00 0.00 0.00 99 1017.4
20260906050321 60 98 0.0 0.0 0.00 0.00 0.00 99 1017.5
20260906045820 60 97 0.0 0.0 0.00 0.00 0.00 99 1017.6
20260906045314 60 98 0.0 0.0 0.00 0.00 0.00 99 1017.3
20260906044811 60 97 0.0 0.0 0.00 0.00 0.00 99 1017.3
20260906044305 60 98 0.0 0.0 0.00 0.00 0.00 99 1017.2
20260906043801 60 98 0.0 0.0 0.00 0.00 0.00 99 1017.1
20260906043257 61 98 0.0 0.0 0.00 0.00 0.00 99 1017.1
20260906042757 61 98 0.0 0.0 0.00 0.00 0.00 99 1016.7
20260906042256 61 98 0.0 0.0 0.00 0.00 0.00 99 1016.8
20260906041751 61 98 0.0 0.0 0.00 0.00 0.00 99 1016.9
20260906041247 61 98 0.0 0.0 0.00 0.00 0.00 99 1016.9
20260906040742 62 98 0.0 0.0 0.00 0.00 0.00 99 1016.8
20260906040237 62 98 0.0 0.0 0.00 0.00 0.00 99 1016.7
20260906035732 62 98 0.0 0.0 0.00 0.00 0.00 99 1016.5
20260906035229 62 98 0.0 0.0 0.00 0.00 0.00 99 1016.6
20260906034728 62 98 0.0 0.0 0.00 0.00 0.00 99 1016.8
20260906034223 62 98 0.0 0.0 0.00 0.00 0.00 99 1016.8
20260906033719 62 98 0.0 0.0 0.00 0.00 0.00 99 1016.9
20260906033218 62 98 0.0 0.0 0.00 0.00 0.00 99 1016.9
20260906032716 62 98 0.0 0.0 0.00 0.00 0.00 99 1016.9
20260906032215 63 97 0.0 0.0 0.00 0.00 0.00 99 1016.6
20260906031710 63 99 0.0 0.0 0.00 0.00 0.00 99 1016.7
20260906031206 63 98 0.0 0.0 0.00 0.00 0.00 99 1016.8
20260906030706 63 98 0.0 0.0 0.00 0.00 0.00 99 1016.9
20260906030200 63 98 0.0 0.0 0.00 0.00 0.00 99 1016.8
20260906025659 63 98 0.0 0.0 0.00 0.00 0.00 99 1016.8
20260906025154 63 104 0.0 0.0 0.00 0.00 0.00 99 1016.7
20260906024648 64 98 0.0 0.0 0.00 0.00 0.00 99 1016.6
20260906024147 64 97 0.0 0.0 0.00 0.00 0.00 99 1016.7
20260906023644 64 99 0.0 0.0 0.00 0.00 0.00 99 1016.6
20260906023143 64 100 0.0 0.0 0.00 0.00 0.00 99 1016.4
20260906022638 64 97 0.0 0.0 0.00 0.00 0.00 99 1016.4
20260906022134 65 97 0.0 0.0 0.00 0.00 0.00 99 1016.4
20260906021630 65 97 0.0 0.0 0.00 0.00 0.00 99 1016.4
20260906021128 65 97 0.0 0.0 0.00 0.00 0.00 99 1016.6
20260906020623 65 98 0.0 0.0 0.00 0.00 0.00 99 1016.3
20260906020118 66 98 0.0 0.0 0.00 0.00 0.00 99 1016.4
20260906015612 66 99 0.0 0.0 0.00 0.00 0.00 99 1016.3
20260906015111 66 99 0.0 0.0 0.00 0.00 0.00 99 1016.4
20260906014606 66 99 0.0 0.0 0.00 0.00 0.00 99 1016.4
20260906014102 66 97 0.0 0.0 0.00 0.00 0.00 99 1016.0
20260906013557 66 97 0.0 0.0 0.00 0.00 0.00 99 1015.8
20260906013053 66 97 0.0 0.0 0.00 0.00 0.00 99 1015.9
20260906012548 67 97 0.0 0.0 0.00 0.00 0.00 99 1015.9
20260906012047 67 97 0.0 0.0 0.00 0.00 0.00 99 1015.8
20260906011544 67 97 0.0 0.0 0.00 0.00 0.00 99 1015.8
20260906011043 67 97 0.0 0.0 0.00 0.00 0.00 99 1015.9
20260906010539 67 97 0.0 0.0 0.00 0.00 0.00 99 1015.9
20260906010035 67 97 0.0 0.0 0.00 0.00 0.00 99 1015.9
20260906005534 67 97 0.0 0.0 0.00 0.00 0.00 99 1015.8
20260906005033 68 97 0.0 0.0 0.00 0.00 0.00 99 1015.8
20260906004532 68 97 0.0 0.0 0.00 0.00 0.00 99 1015.7
20260906004027 68 97 0.0 0.0 0.00 0.00 0.00 99 1015.9
20260906003523 68 96 0.0 0.0 0.00 0.00 0.00 99 1015.8
20260906003019 68 96 0.0 0.0 0.00 0.00 0.00 99 1015.6
20260906002513 69 97 0.0 0.0 0.00 0.00 0.00 99 1015.7
20260906002008 69 97 0.0 0.0 0.00 0.00 0.00 99 1015.9
20260906001504 69 97 0.0 0.0 0.00 0.00 0.00 99 1015.8
20260906000958 69 97 0.0 0.0 0.00 0.00 0.00 99 1015.9
20260906000455 70 97 0.0 0.0 0.00 0.00 0.00 98 1015.8
20260905235954 70 97 0.0 0.0 0.00 0.00 0.00 98 1015.8
20260905235448 70 97 0.0 0.0 0.00 0.00 0.00 98 1015.8
20260905234943 71 97 0.0 0.0 0.00 0.00 0.00 97 1015.7
20260905234438 71 97 0.0 0.0 0.00 0.00 0.00 97 1016.0
20260905233932 71 97 0.0 0.0 0.00 0.00 0.00 96 1015.8
20260905233428 71 97 0.0 0.0 0.00 0.00 0.00 96 1016.3
20260905232927 71 99 0.0 0.0 0.00 0.00 0.00 96 1016.0
20260905232423 72 97 0.0 0.0 0.00 0.00 0.00 96 1016.3
20260905231918 72 99 0.0 0.0 0.00 0.00 0.00 95 1015.9
20260905231414 72 101 0.0 0.0 0.00 0.00 0.00 95 1016.0
20260905230911 72 96 0.0 0.0 0.00 0.00 0.00 94 1016.1
20260905230408 72 98 0.0 0.0 0.00 0.00 0.00 94 1015.8
20260905225901 73 98 0.0 0.0 0.00 0.00 0.00 93 1016.1
20260905225356 73 97 0.0 0.0 0.00 0.00 0.00 92 1015.9
20260905224852 73 96 0.0 0.0 0.00 0.00 0.00 92 1016.0
20260905224348 73 96 0.0 0.0 0.00 0.00 0.00 91 1015.8
20260905223842 73 99 0.0 0.0 0.00 0.00 0.00 92 1016.1
20260905223339 73 96 0.0 0.0 0.00 0.00 0.00 91 1016.0
20260905222834 73 98 0.0 0.0 0.00 0.00 0.00 91 1016.1
20260905222333 73 95 0.0 0.0 0.00 0.00 0.00 90 1016.0
20260905221829 73 94 0.0 0.0 0.00 0.00 0.00 90 1016.0
20260905221326 73 101 0.0 0.0 0.00 0.00 0.00 90 1015.7
20260905220821 74 93 0.0 0.0 0.00 0.00 0.00 90 1015.8
20260905220317 74 103 0.0 0.0 0.00 0.00 0.00 89 1015.4
20260905215816 75 96 0.0 0.0 0.00 0.00 0.00 90 1015.6
20260905215312 74 102 0.0 0.0 0.00 0.00 0.00 90 1015.7
20260905214808 74 98 0.0 0.0 0.00 0.00 0.00 90 1015.6
20260905214304 74 93 0.0 0.9 0.00 0.00 0.00 90 1015.7
20260905213759 74 106 0.0 0.9 0.00 0.00 0.00 89 1015.5
20260905213255 75 99 0.0 0.0 0.00 0.00 0.00 89 1015.7
20260905212749 75 91 0.9 0.9 0.00 0.00 0.00 88 1015.8
20260905212249 75 81 0.9 0.9 0.00 0.00 0.00 90 1015.9
20260905211748 74 102 0.0 0.0 0.00 0.00 0.00 90 1015.9
20260905211244 74 105 0.0 0.9 0.00 0.00 0.00 90 1015.9
20260905210741 74 102 0.0 0.0 0.00 0.00 0.00 90 1015.9
20260905210235 74 105 0.9 0.9 0.00 0.00 0.00 90 1016.3
20260905205734 74 98 0.0 0.0 0.00 0.00 0.00 90 1015.8
20260905205229 74 98 0.0 0.0 0.00 0.00 0.00 90 1015.9
20260905204728 73 88 0.0 0.0 0.00 0.00 0.00 92 1015.9
20260905204224 73 98 0.0 0.0 0.00 0.00 0.00 92 1016.0
20260905203723 73 85 0.0 0.0 0.00 0.00 0.00 93 1016.0
20260905203219 72 96 0.0 0.9 0.00 0.00 0.00 93 1016.0
20260905202714 72 95 0.0 0.0 0.00 0.00 0.00 93 1016.1
20260905202215 72 96 0.0 0.0 0.00 0.00 0.00 94 1016.3
20260905201710 72 99 0.0 0.0 0.00 0.00 0.00 94 1016.3
20260905201205 72 99 0.0 0.0 0.00 0.00 0.00 94 1016.3
20260905200700 72 91 0.0 0.0 0.00 0.00 0.00 94 1016.1
20260905200155 72 101 0.9 1.7 0.00 0.00 0.00 94 1016.3
20260905195654 72 98 0.0 0.0 0.00 0.00 0.00 93 1016.1
20260905195148 72 99 0.0 0.0 0.00 0.00 0.00 93 1016.5
20260905194644 72 99 0.0 0.0 0.00 0.00 0.00 93 1016.4
20260905194138 72 101 0.0 0.0 0.00 0.00 0.00 93 1016.1
20260905193633 72 101 0.0 0.0 0.00 0.00 0.00 94 1016.5
20260905193133 72 99 0.0 0.9 0.00 0.00 0.00 94 1016.1
20260905192628 72 97 0.9 0.9 0.00 0.00 0.00 93 1016.3
20260905192124 72 96 0.0 0.0 0.00 0.00 0.00 94 1016.1
20260905191624 72 98 0.0 0.0 0.00 0.00 0.00 94 1016.4
20260905191122 72 92 0.9 0.9 0.00 0.00 0.00 94 1016.3
20260905190621 72 99 0.0 0.0 0.00 0.00 0.00 94 1016.4
20260905190120 72 103 0.0 0.0 0.00 0.00 0.00 94 1016.3
20260905185619 71 101 0.9 0.9 0.00 0.00 0.00 95 1016.5
20260905185114 71 104 0.9 0.9 0.00 0.00 0.00 95 1016.4
20260905184609 71 97 0.0 0.0 0.00 0.00 0.00 95 1016.5
20260905184108 71 95 0.0 0.9 0.00 0.00 0.00 95 1016.1
20260905183607 71 112 0.9 0.9 0.00 0.00 0.00 94 1016.6
20260905183103 71 101 0.0 0.9 0.00 0.00 0.00 94 1016.3
20260905182602 71 97 0.0 0.0 0.00 0.00 0.00 95 1016.4
20260905182056 71 94 0.0 0.0 0.00 0.00 0.00 94 1016.5
20260905181551 71 94 0.0 0.0 0.00 0.00 0.00 94 1016.6
20260905181050 71 99 0.0 0.9 0.00 0.00 0.00 94 1016.6
20260905180545 71 109 0.9 0.9 0.00 0.00 0.00 94 1016.4
20260905180041 71 96 0.0 0.0 0.00 0.00 0.00 95 1016.5
20260905175539 71 95 0.0 0.0 0.00 0.00 0.00 95 1016.6
20260905175035 71 105 0.0 0.9 0.00 0.00 0.00 95 1016.5
20260905174531 71 89 1.7 1.7 0.00 0.00 0.00 94 1016.4
20260905174026 71 97 0.0 0.0 0.00 0.00 0.00 95 1016.5
20260905173523 71 97 0.9 0.9 0.00 0.00 0.00 94 1016.3
20260905173018 71 107 0.9 0.9 0.00 0.00 0.00 94 1016.5
20260905172516 71 100 0.9 0.9 0.00 0.00 0.00 95 1016.4
20260905172012 71 106 0.9 1.7 0.00 0.00 0.00 95 1016.4
20260905171508 70 118 0.9 1.7 0.00 0.00 0.00 95 1016.3
20260905171004 70 80 0.9 1.7 0.00 0.00 0.00 95 1016.3
20260905170500 71 93 0.9 1.7 0.00 0.00 0.00 95 1016.5
20260905165959 70 85 1.7 2.6 0.00 0.00 0.00 95 1016.6
20260905165455 70 104 1.7 1.7 0.00 0.00 0.00 95 1016.5
20260905164949 70 99 0.0 0.0 0.00 0.00 0.00 95 1016.5
20260905164444 70 102 0.0 0.0 0.00 0.00 0.00 96 1016.3
20260905163939 70 105 0.9 0.9 0.00 0.00 0.00 96 1016.1